CDT,Max TemperatureF,Mean TemperatureF,Min TemperatureF,Max Dew PointF,MeanDew PointF,Min DewpointF,Max Humidity, Mean Humidity, Min Humidity, Max Sea Level PressureIn, Mean Sea Level PressureIn, Min Sea Level PressureIn, Max VisibilityMiles, Mean VisibilityMiles, Min VisibilityMiles, Max Wind SpeedMPH, Mean Wind SpeedMPH, Max Gust SpeedMPH,PrecipitationIn, CloudCover, Events, WindDirDegrees
2013-5-1,75,68,60,66,61,55,100,84,69,30.07,30.01,29.95,10,10,8,13,5,,0.00,3,,115
2013-5-2,66,63,60,64,62,61,100,97,88,30.13,30.06,30.02,10,8,2,6,3,,0.00,7,Rain,65
2013-5-3,62,50,37,61,43,37,100,100,100,30.02,29.96,29.90,10,8,2,14,5,20,0.05,7,Rain,225
2013-5-4,55,44,32,46,38,32,100,94,62,29.99,29.94,29.89,10,10,5,13,2,,0.00,2,Rain,195
2013-5-5,57,50,42,50,46,43,100,95,59,29.95,29.91,29.88,10,6,2,17,5,23,0.48,7,Rain,325
2013-5-6,62,56,50,59,54,50,100,98,82,29.97,29.91,29.87,10,9,2,14,6,,0.00,7,Rain,295
2013-5-7,71,60,50,61,58,52,100,88,56,30.04,29.99,29.95,10,6,0,8,1,,0.00,2,,306
2013-5-8,78,64,51,63,58,54,100,84,50,30.11,30.04,30.01,10,9,4,8,0,,0.00,1,,238
2013-5-9,78,68,59,66,63,59,100,88,57,30.10,30.02,29.98,10,10,7,18,4,25,0.00,4,,188
2013-5-10,73,66,60,73,65,63,100,99,94,29.98,29.94,29.91,10,7,2,20,5,30,0.38,6,Rain,183
2013-5-11,71,64,57,61,57,54,100,85,56,30.07,30.00,29.94,10,9,5,14,6,16,0.00,3,,330
2013-5-12,64,55,46,57,43,32,94,66,32,30.24,30.17,30.08,10,10,9,14,7,20,0.00,1,,10
2013-5-13,73,58,42,54,47,43,100,81,41,30.30,30.20,30.15,10,10,9,10,2,,0.00,1,,188
2013-5-14,84,70,55,61,55,54,94,75,37,30.16,30.11,30.05,10,10,8,17,9,26,0.00,0,,197
2013-5-15,82,70,59,61,57,52,94,68,39,30.15,30.07,29.98,10,10,7,18,9,26,0.00,1,,207
2013-5-16,73,68,62,66,63,46,100,90,52,30.02,29.97,29.92,10,10,7,12,5,,0.00,4,,171
2013-5-17,77,70,64,73,67,64,100,98,78,29.97,29.93,29.91,10,9,2,15,6,21,0.00,5,Rain,173
2013-5-18,80,72,64,79,74,66,100,98,89,30.00,29.96,29.93,10,6,2,10,1,,0.00,5,,165
2013-5-19,84,76,69,73,72,68,100,84,62,29.99,29.94,29.89,10,7,3,15,7,23,0.00,3,,169
2013-5-20,84,76,69,75,73,70,100,93,70,29.99,29.93,29.85,10,9,5,16,11,23,0.00,2,,180
2013-5-21,75,70,62,73,70,64,100,99,88,30.01,29.91,29.79,10,7,0,26,7,32,0.90,6,Rain-Thunderstorm,143
2013-5-22,78,69,60,70,65,63,100,91,61,29.94,29.87,29.77,10,9,3,17,6,24,0.21,4,,202
2013-5-23,80,71,62,66,63,57,100,85,51,30.12,30.01,29.93,10,10,9,14,5,,0.00,1,,297
2013-5-24,73,64,55,61,54,46,100,78,38,30.31,30.22,30.13,10,10,9,128,11,21,0.00,1,,38
2013-5-25,78,64,51,63,55,52,100,83,44,30.32,30.25,30.17,10,10,5,7,2,,0.00,2,,129
2013-5-26,82,68,55,61,58,55,100,80,39,30.22,30.16,30.10,10,10,8,9,2,,0.00,1,,160
2013-5-27,84,73,62,72,64,59,100,83,42,30.13,30.07,29.99,10,10,7,15,6,21,0.00,2,,177
2013-5-28,87,78,69,72,67,55,100,81,35,30.07,30.00,29.98,10,10,8,16,11,20,0.00,1,,175
2013-5-29,86,74,62,72,65,61,100,79,45,30.06,30.01,29.94,10,10,8,15,7,21,0.00,2,,163
2013-5-30,84,76,69,73,72,70,100,93,66,30.04,30.00,29.93,10,9,4,22,9,28,0.00,2,Rain,159
2013-5-31,82,74,66,77,73,66,100,95,79,30.02,29.96,29.87,10,8,2,16,9,31,0.34,5,Rain,165